Time,TemperatureF,DewpointF,PressureIn,WindDirection,WindDirectionDegrees,WindSpeedMPH,WindSpeedGustMPH,Humidity,HourlyPrecipIn,Conditions,Clouds,dailyrainin,SoftwareType,DateUTC
2013-03-14 00:02:00,31.1,23.5,30.31,South,172,5.0,5.0,73,0.00,,SCT250,0.00,VWS V14.01,2013-03-14 05:02:00,
2013-03-14 00:07:00,31.4,23.8,30.31,South,184,4.0,5.0,73,0.00,,SCT250,0.00,VWS V14.01,2013-03-14 05:07:00,
2013-03-14 00:12:00,31.6,23.6,30.31,South,174,4.0,6.0,72,0.00,,SCT250,0.00,VWS V14.01,2013-03-14 05:12:00,
2013-03-14 00:17:00,31.9,23.6,30.30,SSE,166,6.0,7.0,71,0.00,,SCT250,0.00,VWS V14.01,2013-03-14 05:17:00,
2013-03-14 00:22:00,31.9,23.6,30.30,South,181,6.0,6.0,71,0.00,,SCT250,0.00,VWS V14.01,2013-03-14 05:22:00,
2013-03-14 00:27:00,31.9,23.6,30.29,South,169,4.0,7.0,71,0.00,,SCT250,0.00,VWS V14.01,2013-03-14 05:27:00,
2013-03-14 00:33:00,31.9,23.6,30.29,South,184,5.0,7.0,71,0.00,,SCT250,0.00,VWS V14.01,2013-03-14 05:33:00,
2013-03-14 00:38:00,31.9,23.6,30.28,South,175,5.0,5.0,71,0.00,,SCT250,0.00,VWS V14.01,2013-03-14 05:38:00,
2013-03-14 00:43:00,31.9,23.6,30.28,South,180,3.0,4.0,71,0.00,,SCT250,0.00,VWS V14.01,2013-03-14 05:43:00,
2013-03-14 00:48:00,31.9,23.6,30.28,SSW,193,5.0,7.0,71,0.00,,SCT250,0.00,VWS V14.01,2013-03-14 05:48:00,
2013-03-14 00:53:00,31.9,23.6,30.28,South,187,4.0,6.0,71,0.00,,SCT250,0.00,VWS V14.01,2013-03-14 05:53:00,
2013-03-14 00:58:00,31.9,23.6,30.28,South,174,5.0,6.0,71,0.00,,SCT250,0.00,VWS V14.01,2013-03-14 05:58:00,
2013-03-14 01:03:00,31.7,23.7,30.28,South,169,1.0,3.0,72,0.00,,SCT250,0.00,VWS V14.01,2013-03-14 06:03:00,
2013-03-14 01:08:00,31.6,23.6,30.28,SE,129,0.0,3.0,72,0.00,,SCT250,0.00,VWS V14.01,2013-03-14 06:08:00,
2013-03-14 01:13:00,31.6,23.6,30.27,ESE,122,3.0,4.0,72,0.00,,SCT250,0.00,VWS V14.01,2013-03-14 06:13:00,
2013-03-14 01:18:00,31.4,23.8,30.27,SSE,166,4.0,4.0,73,0.00,,SCT250,0.00,VWS V14.01,2013-03-14 06:18:00,
2013-03-14 01:23:00,31.4,23.8,30.27,SSE,166,5.0,6.0,73,0.00,,SCT250,0.00,VWS V14.01,2013-03-14 06:23:00,
2013-03-14 01:28:00,31.4,23.8,30.26,South,174,4.0,5.0,73,0.00,,SCT250,0.00,VWS V14.01,2013-03-14 06:28:00,
2013-03-14 01:33:00,31.4,23.8,30.26,SSE,161,3.0,4.0,73,0.00,,SCT250,0.00,VWS V14.01,2013-03-14 06:33:00,
2013-03-14 01:38:00,31.6,23.6,30.26,SSE,161,3.0,6.0,72,0.00,,SCT250,0.00,VWS V14.01,2013-03-14 06:38:00,
2013-03-14 01:43:00,31.6,23.6,30.25,SSE,147,3.0,6.0,72,0.00,,SCT250,0.00,VWS V14.01,2013-03-14 06:43:00,
2013-03-14 01:48:00,31.6,24.0,30.25,SSE,158,5.0,5.0,73,0.00,,SCT250,0.00,VWS V14.01,2013-03-14 06:48:00,
2013-03-14 01:53:00,31.7,23.7,30.25,SSE,160,4.0,6.0,72,0.00,,SCT250,0.00,VWS V14.01,2013-03-14 06:53:00,
2013-03-14 01:59:00,31.7,23.7,30.25,SSE,163,4.0,6.0,72,0.00,,SCT250,0.00,VWS V14.01,2013-03-14 06:59:00,
2013-03-14 02:04:00,31.7,23.7,30.24,SSE,160,3.0,5.0,72,0.00,,SCT250,0.00,VWS V14.01,2013-03-14 07:04:00,
2013-03-14 02:09:00,31.7,24.4,30.24,SSE,156,4.0,4.0,74,0.00,,SCT250,0.00,VWS V14.01,2013-03-14 07:09:00,
2013-03-14 02:14:00,31.8,24.1,30.24,SSE,168,3.0,4.0,73,0.00,,SCT250,0.00,VWS V14.01,2013-03-14 07:14:00,
2013-03-14 02:19:00,31.9,24.2,30.24,SSE,153,3.0,3.0,73,0.00,,SCT250,0.00,VWS V14.01,2013-03-14 07:19:00,
2013-03-14 02:24:00,32.0,24.3,30.23,South,172,4.0,6.0,73,0.00,,SCT250,0.00,VWS V14.01,2013-03-14 07:24:00,
2013-03-14 02:29:00,32.2,24.2,30.23,SSE,160,5.0,6.0,72,0.00,,SCT250,0.00,VWS V14.01,2013-03-14 07:29:00,
2013-03-14 02:34:00,32.4,24.1,30.23,SSE,157,3.0,6.0,71,0.00,,SCT250,0.00,VWS V14.01,2013-03-14 07:34:00,
2013-03-14 02:39:00,32.5,24.2,30.23,SSE,148,3.0,6.0,71,0.00,,SCT250,0.00,VWS V14.01,2013-03-14 07:39:00,
2013-03-14 02:44:00,32.6,24.2,30.22,SSE,149,5.0,5.0,71,0.00,,SCT250,0.00,VWS V14.01,2013-03-14 07:44:00,
2013-03-14 02:49:00,32.7,24.4,30.22,South,171,4.0,4.0,71,0.00,,SCT250,0.00,VWS V14.01,2013-03-14 07:49:00,
2013-03-14 02:54:00,32.9,24.5,30.21,SSE,154,3.0,5.0,71,0.00,,SCT250,0.00,VWS V14.01,2013-03-14 07:54:00,
2013-03-14 02:59:00,33.0,24.6,30.21,South,173,3.0,5.0,71,0.00,,SCT250,0.00,VWS V14.01,2013-03-14 07:59:00,
2013-03-14 03:04:00,33.1,24.7,30.21,SSE,156,5.0,6.0,71,0.00,,SCT250,0.00,VWS V14.01,2013-03-14 08:04:00,
2013-03-14 03:09:00,33.2,24.8,30.20,SSE,168,2.0,6.0,71,0.00,,SCT250,0.00,VWS V14.01,2013-03-14 08:09:00,
2013-03-14 03:14:00,33.3,24.9,30.20,SSE,165,4.0,6.0,71,0.00,,SCT250,0.00,VWS V14.01,2013-03-14 08:14:00,
2013-03-14 03:19:00,34.0,25.6,30.20,South,187,7.0,11.0,71,0.00,,SCT250,0.00,VWS V14.01,2013-03-14 08:19:00,
2013-03-14 03:24:00,35.6,26.1,30.20,South,187,9.0,14.0,68,0.00,,SCT250,0.00,VWS V14.01,2013-03-14 08:24:00,
2013-03-14 03:29:00,36.7,26.1,30.20,South,189,10.0,12.0,65,0.00,,SCT250,0.00,VWS V14.01,2013-03-14 08:29:00,
2013-03-14 03:34:00,37.0,26.0,30.19,South,178,14.0,14.0,64,0.00,,SCT250,0.00,VWS V14.01,2013-03-14 08:34:00,
2013-03-14 03:39:00,37.0,26.0,30.19,SSW,208,7.0,10.0,64,0.00,,SCT250,0.00,VWS V14.01,2013-03-14 08:39:00,
2013-03-14 03:44:00,37.0,25.6,30.18,South,189,7.0,13.0,63,0.00,,SCT250,0.00,VWS V14.01,2013-03-14 08:44:00,
2013-03-14 03:49:00,36.9,25.9,30.18,SSW,195,9.0,9.0,64,0.00,,SCT250,0.00,VWS V14.01,2013-03-14 08:49:00,
2013-03-14 03:54:00,36.7,25.7,30.18,South,184,7.0,10.0,64,0.00,,SCT250,0.00,VWS V14.01,2013-03-14 08:54:00,
2013-03-14 03:59:00,36.6,25.6,30.18,South,189,7.0,9.0,64,0.00,,SCT250,0.00,VWS V14.01,2013-03-14 08:59:00,
2013-03-14 04:04:00,36.5,25.5,30.18,South,177,7.0,12.0,64,0.00,,SCT250,0.00,VWS V14.01,2013-03-14 09:04:00,
2013-03-14 04:09:00,36.5,25.9,30.18,South,177,12.0,12.0,65,0.00,,SCT250,0.00,VWS V14.01,2013-03-14 09:09:00,
2013-03-14 04:14:00,36.3,25.3,30.18,South,183,9.0,11.0,64,0.00,,SCT250,0.00,VWS V14.01,2013-03-14 09:14:00,
2013-03-14 04:19:00,36.2,25.6,30.18,South,170,7.0,13.0,65,0.00,,SCT250,0.00,VWS V14.01,2013-03-14 09:19:00,
2013-03-14 04:24:00,36.1,25.5,30.18,South,189,13.0,14.0,65,0.00,,SCT250,0.00,VWS V14.01,2013-03-14 09:24:00,
2013-03-14 04:29:00,36.0,25.8,30.17,South,175,11.0,12.0,66,0.00,,SCT250,0.00,VWS V14.01,2013-03-14 09:29:00,
2013-03-14 04:34:00,36.0,25.8,30.17,South,180,12.0,13.0,66,0.00,,SCT250,0.00,VWS V14.01,2013-03-14 09:34:00,
2013-03-14 04:39:00,36.0,25.8,30.17,SSW,195,7.0,10.0,66,0.00,,SCT250,0.00,VWS V14.01,2013-03-14 09:39:00,
2013-03-14 04:45:00,36.0,25.8,30.16,SSW,202,5.0,13.0,66,0.00,,SCT250,0.00,VWS V14.01,2013-03-14 09:45:00,
2013-03-14 04:50:00,36.0,25.8,30.16,SSW,197,7.0,10.0,66,0.00,,SCT250,0.00,VWS V14.01,2013-03-14 09:50:00,
2013-03-14 04:55:00,36.1,25.9,30.16,SSW,193,6.0,9.0,66,0.00,,SCT250,0.00,VWS V14.01,2013-03-14 09:55:00,
2013-03-14 05:00:00,36.0,25.8,30.16,SSW,197,6.0,8.0,66,0.00,,SCT250,0.00,VWS V14.01,2013-03-14 10:00:00,
2013-03-14 05:05:00,35.9,26.0,30.16,South,170,8.0,11.0,67,0.00,,SCT250,0.00,VWS V14.01,2013-03-14 10:05:00,
2013-03-14 05:10:00,35.9,26.0,30.15,SSW,204,8.0,8.0,67,0.00,,SCT250,0.00,VWS V14.01,2013-03-14 10:10:00,
2013-03-14 05:15:00,35.9,26.0,30.15,SSW,204,8.0,9.0,67,0.00,,SCT250,0.00,VWS V14.01,2013-03-14 10:15:00,
2013-03-14 05:20:00,35.8,25.9,30.15,SSW,208,6.0,8.0,67,0.00,,SCT250,0.00,VWS V14.01,2013-03-14 10:20:00,
2013-03-14 05:25:00,35.8,25.9,30.15,SW,218,5.0,7.0,67,0.00,,SCT250,0.00,VWS V14.01,2013-03-14 10:25:00,
2013-03-14 05:30:00,35.6,25.7,30.15,South,172,6.0,10.0,67,0.00,,SCT250,0.00,VWS V14.01,2013-03-14 10:30:00,
2013-03-14 05:35:00,35.6,25.7,30.14,SSW,197,7.0,10.0,67,0.00,,SCT250,0.00,VWS V14.01,2013-03-14 10:35:00,
2013-03-14 05:40:00,35.5,26.0,30.15,South,171,7.0,8.0,68,0.00,,SCT250,0.00,VWS V14.01,2013-03-14 10:40:00,
2013-03-14 05:45:00,35.4,25.9,30.14,South,183,4.0,8.0,68,0.00,,OVC100,0.00,VWS V14.01,2013-03-14 10:45:00,
2013-03-14 05:50:00,35.5,26.0,30.14,SSW,198,6.0,7.0,68,0.00,,OVC100,0.00,VWS V14.01,2013-03-14 10:50:00,
2013-03-14 05:55:00,35.5,26.0,30.14,SSW,197,7.0,9.0,68,0.00,,OVC100,0.00,VWS V14.01,2013-03-14 10:55:00,
2013-03-14 06:00:00,35.6,26.1,30.14,SSW,206,5.0,7.0,68,0.00,,OVC100,0.00,VWS V14.01,2013-03-14 11:00:00,
2013-03-14 06:05:00,35.6,26.1,30.14,SSE,166,5.0,7.0,68,0.00,,OVC100,0.00,VWS V14.01,2013-03-14 11:05:00,
2013-03-14 06:10:00,35.5,26.0,30.14,South,176,4.0,9.0,68,0.00,,OVC100,0.00,VWS V14.01,2013-03-14 11:10:00,
2013-03-14 06:15:00,35.5,26.0,30.14,South,186,4.0,6.0,68,0.00,,OVC100,0.00,VWS V14.01,2013-03-14 11:15:00,
2013-03-14 06:20:00,35.5,26.0,30.14,South,187,3.0,6.0,68,0.00,,OVC100,0.00,VWS V14.01,2013-03-14 11:20:00,
2013-03-14 06:25:00,35.5,26.0,30.13,South,189,8.0,8.0,68,0.00,,OVC100,0.00,VWS V14.01,2013-03-14 11:25:00,
2013-03-14 06:30:00,35.3,26.2,30.13,South,187,6.0,6.0,69,0.00,,OVC100,0.00,VWS V14.01,2013-03-14 11:30:00,
2013-03-14 06:35:00,35.1,26.0,30.12,South,188,6.0,8.0,69,0.00,,OVC100,0.00,VWS V14.01,2013-03-14 11:35:00,
2013-03-14 06:40:00,35.2,26.1,30.12,SW,222,7.0,10.0,69,0.00,,BKN110,0.00,VWS V14.01,2013-03-14 11:40:00,
2013-03-14 06:45:00,35.0,25.9,30.12,South,169,8.0,9.0,69,0.00,,BKN110,0.00,VWS V14.01,2013-03-14 11:45:00,
2013-03-14 06:50:00,34.9,25.8,30.12,SSW,194,6.0,7.0,69,0.00,,BKN110,0.00,VWS V14.01,2013-03-14 11:50:00,
2013-03-14 06:55:00,34.7,25.9,30.12,SSW,203,5.0,7.0,70,0.00,,BKN110,0.00,VWS V14.01,2013-03-14 11:55:00,
2013-03-14 07:00:00,34.6,25.8,30.12,South,183,4.0,6.0,70,0.00,,BKN110,0.00,VWS V14.01,2013-03-14 12:00:00,
2013-03-14 07:05:00,34.4,25.6,30.12,SSW,198,5.0,6.0,70,0.00,,BKN110,0.00,VWS V14.01,2013-03-14 12:05:00,
2013-03-14 07:10:00,34.1,25.7,30.12,South,189,5.0,5.0,71,0.00,,BKN110,0.00,VWS V14.01,2013-03-14 12:10:00,
2013-03-14 07:16:00,33.8,25.7,30.11,South,187,3.0,4.0,72,0.00,,BKN110,0.00,VWS V14.01,2013-03-14 12:16:00,
2013-03-14 07:21:00,33.6,25.5,30.11,SSE,168,0.0,0.0,72,0.00,,BKN110,0.00,VWS V14.01,2013-03-14 12:21:00,
2013-03-14 07:26:00,33.3,25.6,30.11,SSE,162,3.0,3.0,73,0.00,,BKN110,0.00,VWS V14.01,2013-03-14 12:26:00,
2013-03-14 07:31:00,33.2,25.5,30.11,South,183,2.0,3.0,73,0.00,,BKN110,0.00,VWS V14.01,2013-03-14 12:31:00,
2013-03-14 07:36:00,33.3,25.6,30.11,South,189,4.0,5.0,73,0.00,,BKN110,0.00,VWS V14.01,2013-03-14 12:36:00,
2013-03-14 07:41:00,33.1,25.4,30.11,SSW,198,4.0,4.0,73,0.00,,BKN110,0.00,VWS V14.01,2013-03-14 12:41:00,
2013-03-14 07:46:00,33.0,25.6,30.11,SSW,193,5.0,6.0,74,0.00,,BKN110,0.00,VWS V14.01,2013-03-14 12:46:00,
2013-03-14 07:51:00,33.4,26.0,30.11,SSW,198,7.0,7.0,74,0.00,,BKN110,0.00,VWS V14.01,2013-03-14 12:51:00,
2013-03-14 07:56:00,33.7,26.0,30.11,South,180,6.0,6.0,73,0.00,,BKN110,0.00,VWS V14.01,2013-03-14 12:56:00,
2013-03-14 08:01:00,34.0,26.3,30.11,SSW,206,5.0,6.0,73,0.00,,BKN150,0.00,VWS V14.01,2013-03-14 13:01:00,
2013-03-14 08:06:00,34.2,26.5,30.11,SSW,198,4.0,7.0,73,0.00,,BKN150,0.00,VWS V14.01,2013-03-14 13:06:00,
2013-03-14 08:11:00,34.5,26.4,30.10,SSW,195,8.0,8.0,72,0.00,,BKN150,0.00,VWS V14.01,2013-03-14 13:11:00,
2013-03-14 08:16:00,34.7,26.6,30.10,South,185,5.0,8.0,72,0.00,,BKN150,0.00,VWS V14.01,2013-03-14 13:16:00,
2013-03-14 08:21:00,35.0,26.9,30.10,South,181,5.0,5.0,72,0.00,,BKN150,0.00,VWS V14.01,2013-03-14 13:21:00,
2013-03-14 08:26:00,35.1,27.0,30.11,SSW,204,3.0,6.0,72,0.00,,BKN150,0.00,VWS V14.01,2013-03-14 13:26:00,
2013-03-14 08:32:00,35.3,26.9,30.10,SW,214,5.0,7.0,71,0.00,,SCT250,0.00,VWS V14.01,2013-03-14 13:32:00,
2013-03-14 08:37:00,35.7,27.6,30.10,South,188,5.0,6.0,72,0.00,,SCT250,0.00,VWS V14.01,2013-03-14 13:37:00,
2013-03-14 08:42:00,36.0,27.5,30.11,SSW,195,4.0,5.0,71,0.00,,SCT250,0.00,VWS V14.01,2013-03-14 13:42:00,
2013-03-14 08:47:00,36.5,28.0,30.11,SSW,199,2.0,5.0,71,0.00,,SCT250,0.00,VWS V14.01,2013-03-14 13:47:00,
2013-03-14 08:52:00,36.9,28.0,30.11,SSW,204,2.0,4.0,70,0.00,,SCT250,0.00,VWS V14.01,2013-03-14 13:52:00,
2013-03-14 08:57:00,37.3,28.1,30.10,SSW,201,2.0,5.0,69,0.00,,SCT250,0.00,VWS V14.01,2013-03-14 13:57:00,
2013-03-14 09:02:00,38.0,28.8,30.11,South,177,2.0,4.0,69,0.00,,SCT250,0.00,VWS V14.01,2013-03-14 14:02:00,
2013-03-14 09:07:00,38.5,28.9,30.11,South,172,2.0,4.0,68,0.00,,SCT250,0.00,VWS V14.01,2013-03-14 14:07:00,
2013-03-14 09:12:00,38.9,28.9,30.11,SW,231,0.0,3.0,67,0.00,,SCT250,0.00,VWS V14.01,2013-03-14 14:12:00,
2013-03-14 09:17:00,39.5,29.5,30.11,WSW,237,3.0,6.0,67,0.00,,SCT250,0.00,VWS V14.01,2013-03-14 14:17:00,
2013-03-14 09:22:00,39.9,29.5,30.11,SW,224,5.0,6.0,66,0.00,,SCT250,0.00,VWS V14.01,2013-03-14 14:22:00,
2013-03-14 09:27:00,40.1,29.7,30.10,SW,232,4.0,5.0,66,0.00,,SCT250,0.00,VWS V14.01,2013-03-14 14:27:00,
2013-03-14 09:32:00,40.6,29.8,30.10,SW,217,4.0,7.0,65,0.00,,SCT250,0.00,VWS V14.01,2013-03-14 14:32:00,
2013-03-14 09:37:00,40.9,30.1,30.10,SW,221,4.0,5.0,65,0.00,,SCT250,0.00,VWS V14.01,2013-03-14 14:37:00,
2013-03-14 09:42:00,41.2,30.0,30.10,SW,219,4.0,8.0,64,0.00,,SCT250,0.00,VWS V14.01,2013-03-14 14:42:00,
2013-03-14 09:47:00,41.4,30.5,30.11,WSW,258,3.0,6.0,65,0.00,,SCT250,0.00,VWS V14.01,2013-03-14 14:47:00,
2013-03-14 09:52:00,41.4,30.1,30.11,SW,228,2.0,5.0,64,0.00,,SCT250,0.00,VWS V14.01,2013-03-14 14:52:00,
2013-03-14 09:57:00,41.6,30.3,30.11,WSW,242,5.0,7.0,64,0.00,,SCT250,0.00,VWS V14.01,2013-03-14 14:57:00,
2013-03-14 10:02:00,41.4,30.5,30.11,SW,229,3.0,6.0,65,0.00,,SCT250,0.00,VWS V14.01,2013-03-14 15:02:00,
2013-03-14 10:07:00,41.6,30.7,30.11,WSW,246,7.0,7.0,65,0.00,,SCT250,0.00,VWS V14.01,2013-03-14 15:07:00,
2013-03-14 10:12:00,41.8,30.9,30.11,WSW,243,5.0,9.0,65,0.00,,SCT250,0.00,VWS V14.01,2013-03-14 15:12:00,
2013-03-14 10:17:00,41.8,30.9,30.11,West,276,3.0,5.0,65,0.00,,SCT250,0.00,VWS V14.01,2013-03-14 15:17:00,
2013-03-14 10:22:00,42.3,31.4,30.11,SW,227,4.0,5.0,65,0.00,,SCT250,0.00,VWS V14.01,2013-03-14 15:22:00,
2013-03-14 10:27:00,42.4,31.5,30.12,WNW,290,1.0,7.0,65,0.00,,SCT250,0.00,VWS V14.01,2013-03-14 15:27:00,
2013-03-14 10:32:00,42.7,31.8,30.11,WSW,244,7.0,8.0,65,0.00,,SCT250,0.00,VWS V14.01,2013-03-14 15:32:00,
2013-03-14 10:37:00,42.7,31.8,30.11,West,262,1.0,4.0,65,0.00,,SCT250,0.00,VWS V14.01,2013-03-14 15:37:00,
2013-03-14 10:43:00,43.2,32.2,30.11,WNW,295,4.0,6.0,65,0.00,,SCT250,0.00,VWS V14.01,2013-03-14 15:43:00,
2013-03-14 10:48:00,43.3,32.3,30.11,West,276,3.0,9.0,65,0.00,,SCT250,0.00,VWS V14.01,2013-03-14 15:48:00,
2013-03-14 10:53:00,43.5,32.2,30.11,WNW,289,5.0,11.0,64,0.00,,SCT250,0.00,VWS V14.01,2013-03-14 15:53:00,
2013-03-14 10:58:00,43.8,32.8,30.11,WSW,237,6.0,11.0,65,0.00,,SCT250,0.00,VWS V14.01,2013-03-14 15:58:00,
2013-03-14 11:03:00,44.0,33.0,30.11,WSW,258,4.0,7.0,65,0.00,,SCT250,0.00,VWS V14.01,2013-03-14 16:03:00,
2013-03-14 11:08:00,44.3,32.9,30.11,WSW,249,5.0,10.0,64,0.00,,SCT250,0.00,VWS V14.01,2013-03-14 16:08:00,
2013-03-14 11:13:00,44.5,33.1,30.12,NW,320,4.0,8.0,64,0.00,,SCT250,0.00,VWS V14.01,2013-03-14 16:13:00,
2013-03-14 11:18:00,45.2,33.8,30.11,WNW,283,2.0,7.0,64,0.00,,SCT250,0.00,VWS V14.01,2013-03-14 16:18:00,
2013-03-14 11:23:00,46.3,34.8,30.11,WNW,294,2.0,4.0,64,0.00,,SCT250,0.00,VWS V14.01,2013-03-14 16:23:00,
2013-03-14 11:28:00,47.0,34.7,30.11,WNW,302,4.0,7.0,62,0.00,,SCT250,0.00,VWS V14.01,2013-03-14 16:28:00,
2013-03-14 11:33:00,47.5,34.7,30.11,West,265,3.0,7.0,61,0.00,,SCT250,0.00,VWS V14.01,2013-03-14 16:33:00,
2013-03-14 11:38:00,47.9,35.1,30.11,West,263,6.0,8.0,61,0.00,,SCT250,0.00,VWS V14.01,2013-03-14 16:38:00,
2013-03-14 11:43:00,48.0,35.6,30.11,SW,232,4.0,6.0,62,0.00,,SCT250,0.00,VWS V14.01,2013-03-14 16:43:00,
2013-03-14 11:48:00,48.3,35.1,30.11,WNW,302,2.0,5.0,60,0.00,,SCT250,0.00,VWS V14.01,2013-03-14 16:48:00,
2013-03-14 11:53:00,48.9,35.6,30.11,WSW,258,6.0,7.0,60,0.00,,SCT250,0.00,VWS V14.01,2013-03-14 16:53:00,
2013-03-14 11:58:00,49.2,35.9,30.11,WNW,294,1.0,8.0,60,0.00,,SCT250,0.00,VWS V14.01,2013-03-14 16:58:00,
2013-03-14 12:03:00,49.9,36.6,30.11,WNW,298,5.0,6.0,60,0.00,,SCT250,0.00,VWS V14.01,2013-03-14 17:03:00,
2013-03-14 12:08:00,50.7,36.9,30.11,NW,307,3.0,8.0,59,0.00,,SCT250,0.00,VWS V14.01,2013-03-14 17:08:00,
2013-03-14 12:13:00,51.1,36.8,30.11,WNW,287,5.0,6.0,58,0.00,,SCT250,0.00,VWS V14.01,2013-03-14 17:13:00,
2013-03-14 12:19:00,51.4,37.1,30.10,North,354,2.0,4.0,58,0.00,,SCT250,0.00,VWS V14.01,2013-03-14 17:19:00,
2013-03-14 12:24:00,52.0,37.2,30.10,WNW,285,4.0,7.0,57,0.00,,SCT250,0.00,VWS V14.01,2013-03-14 17:24:00,
2013-03-14 12:29:00,52.4,37.2,30.11,WNW,286,3.0,5.0,56,0.00,,SCT250,0.00,VWS V14.01,2013-03-14 17:29:00,
2013-03-14 12:34:00,52.8,37.5,30.11,WSW,247,4.0,6.0,56,0.00,,SCT250,0.00,VWS V14.01,2013-03-14 17:34:00,
2013-03-14 12:39:00,53.3,38.0,30.11,North,354,5.0,5.0,56,0.00,,SCT250,0.00,VWS V14.01,2013-03-14 17:39:00,
2013-03-14 12:44:00,53.3,37.6,30.12,WNW,283,2.0,5.0,55,0.00,,BKN250,0.00,VWS V14.01,2013-03-14 17:44:00,
2013-03-14 12:49:00,53.9,37.7,30.12,NNW,339,5.0,7.0,54,0.00,,BKN250,0.00,VWS V14.01,2013-03-14 17:49:00,
2013-03-14 12:54:00,54.7,37.9,30.12,WNW,295,3.0,5.0,53,0.00,,BKN250,0.00,VWS V14.01,2013-03-14 17:54:00,
2013-03-14 12:59:00,55.2,37.9,30.12,North,8,5.0,9.0,52,0.00,,BKN250,0.00,VWS V14.01,2013-03-14 17:59:00,
2013-03-14 13:04:00,55.1,38.3,30.12,North,349,2.0,5.0,53,0.00,,BKN250,0.00,VWS V14.01,2013-03-14 18:04:00,
2013-03-14 13:09:00,55.2,37.4,30.12,North,4,6.0,6.0,51,0.00,,BKN250,0.00,VWS V14.01,2013-03-14 18:09:00,
2013-03-14 13:14:00,55.1,37.8,30.12,NW,322,3.0,5.0,52,0.00,,BKN250,0.00,VWS V14.01,2013-03-14 18:14:00,
2013-03-14 13:19:00,55.1,36.8,30.12,North,4,3.0,7.0,50,0.00,,BKN250,0.00,VWS V14.01,2013-03-14 18:19:00,
2013-03-14 13:25:00,54.9,37.1,30.12,North,4,3.0,6.0,51,0.00,,BKN250,0.00,VWS V14.01,2013-03-14 18:25:00,
2013-03-14 13:30:00,54.9,37.6,30.12,North,354,5.0,7.0,52,0.00,,BKN250,0.00,VWS V14.01,2013-03-14 18:30:00,
2013-03-14 13:35:00,54.9,37.6,30.12,NNW,341,1.0,7.0,52,0.00,,BKN250,0.00,VWS V14.01,2013-03-14 18:35:00,
2013-03-14 13:40:00,55.5,38.7,30.12,WNW,283,2.0,3.0,53,0.00,,BKN250,0.00,VWS V14.01,2013-03-14 18:40:00,
2013-03-14 13:45:00,55.8,38.5,30.12,NNW,330,5.0,6.0,52,0.00,,BKN250,0.00,VWS V14.01,2013-03-14 18:45:00,
2013-03-14 13:50:00,56.3,38.4,30.12,NNW,337,3.0,4.0,51,0.00,,BKN250,0.00,VWS V14.01,2013-03-14 18:50:00,
2013-03-14 13:55:00,56.5,38.6,30.12,North,354,4.0,6.0,51,0.00,,BKN250,0.00,VWS V14.01,2013-03-14 18:55:00,
2013-03-14 14:00:00,56.6,38.7,30.12,North,354,5.0,6.0,51,0.00,,BKN250,0.00,VWS V14.01,2013-03-14 19:00:00,
2013-03-14 14:05:00,57.2,38.8,30.11,WNW,291,7.0,7.0,50,0.00,,BKN250,0.00,VWS V14.01,2013-03-14 19:05:00,
2013-03-14 14:10:00,57.3,39.8,30.11,NW,312,4.0,5.0,52,0.00,,BKN250,0.00,VWS V14.01,2013-03-14 19:10:00,
2013-03-14 14:15:00,58.0,39.5,30.11,NNE,14,4.0,4.0,50,0.00,,BKN250,0.00,VWS V14.01,2013-03-14 19:15:00,
2013-03-14 14:20:00,58.4,39.3,30.11,NW,310,2.0,3.0,49,0.00,,BKN250,0.00,VWS V14.01,2013-03-14 19:20:00,
2013-03-14 14:25:00,58.5,39.4,30.11,NW,320,4.0,5.0,49,0.00,,BKN250,0.00,VWS V14.01,2013-03-14 19:25:00,
2013-03-14 14:30:00,58.2,39.2,30.11,WSW,256,5.0,7.0,49,0.00,,BKN250,0.00,VWS V14.01,2013-03-14 19:30:00,
2013-03-14 14:35:00,58.5,38.9,30.11,NNW,332,3.0,6.0,48,0.00,,BKN250,0.00,VWS V14.01,2013-03-14 19:35:00,
2013-03-14 14:40:00,58.8,39.7,30.11,NW,312,3.0,7.0,49,0.00,,BKN250,0.00,VWS V14.01,2013-03-14 19:40:00,
2013-03-14 14:45:00,59.2,40.1,30.11,WNW,297,6.0,6.0,49,0.00,,BKN250,0.00,VWS V14.01,2013-03-14 19:45:00,
2013-03-14 14:50:00,59.8,40.1,30.10,NNW,345,3.0,6.0,48,0.00,,BKN250,0.00,VWS V14.01,2013-03-14 19:50:00,
2013-03-14 14:55:00,59.7,39.5,30.10,North,4,5.0,8.0,47,0.00,,BKN250,0.00,VWS V14.01,2013-03-14 19:55:00,
2013-03-14 15:00:00,59.6,39.4,30.10,North,4,6.0,8.0,47,0.00,,BKN250,0.00,VWS V14.01,2013-03-14 20:00:00,
2013-03-14 15:05:00,59.7,40.0,30.10,NW,311,8.0,8.0,48,0.00,,BKN250,0.00,VWS V14.01,2013-03-14 20:05:00,
2013-03-14 15:10:00,59.8,40.1,30.10,NNE,12,3.0,9.0,48,0.00,,BKN250,0.00,VWS V14.01,2013-03-14 20:10:00,
2013-03-14 15:15:00,59.6,39.9,30.10,North,354,0.0,3.0,48,0.00,,BKN250,0.00,VWS V14.01,2013-03-14 20:15:00,
2013-03-14 15:39:00,60.6,39.7,30.09,NNW,332,7.0,7.0,46,0.00,,BKN250,0.00,VWS V14.01,2013-03-14 20:39:00,
2013-03-14 15:44:00,60.6,39.7,30.09,NNE,18,3.0,6.0,46,0.00,,SCT250,0.00,VWS V14.01,2013-03-14 20:44:00,
2013-03-14 15:49:00,60.6,39.7,30.09,NNW,341,5.0,6.0,46,0.00,,SCT250,0.00,VWS V14.01,2013-03-14 20:49:00,
2013-03-14 15:54:00,60.7,39.8,30.09,WNW,299,4.0,6.0,46,0.00,,SCT250,0.00,VWS V14.01,2013-03-14 20:54:00,
2013-03-14 15:59:00,60.7,39.8,30.09,NNW,335,2.0,6.0,46,0.00,,SCT250,0.00,VWS V14.01,2013-03-14 20:59:00,
2013-03-14 16:04:00,60.9,39.4,30.09,NW,316,3.0,6.0,45,0.00,,SCT250,0.00,VWS V14.01,2013-03-14 21:04:00,
2013-03-14 16:09:00,61.2,39.7,30.09,North,349,6.0,7.0,45,0.00,,SCT250,0.00,VWS V14.01,2013-03-14 21:09:00,
2013-03-14 16:14:00,61.5,39.4,30.09,WNW,292,5.0,7.0,44,0.00,,SCT250,0.00,VWS V14.01,2013-03-14 21:14:00,
2013-03-14 16:19:00,61.4,39.3,30.09,NNW,337,4.0,7.0,44,0.00,,SCT250,0.00,VWS V14.01,2013-03-14 21:19:00,
2013-03-14 16:24:00,61.2,39.7,30.09,NNW,334,3.0,7.0,45,0.00,,SCT250,0.00,VWS V14.01,2013-03-14 21:24:00,
2013-03-14 16:29:00,61.1,39.6,30.09,NNE,24,6.0,6.0,45,0.00,,SCT250,0.00,VWS V14.01,2013-03-14 21:29:00,
2013-03-14 16:34:00,61.2,40.3,30.09,NW,323,4.0,6.0,46,0.00,,SCT250,0.00,VWS V14.01,2013-03-14 21:34:00,
2013-03-14 16:39:00,61.5,40.5,30.08,NNE,18,7.0,7.0,46,0.00,,SCT250,0.00,VWS V14.01,2013-03-14 21:39:00,
2013-03-14 16:44:00,61.4,39.9,30.08,NNE,12,2.0,4.0,45,0.00,,SCT250,0.00,VWS V14.01,2013-03-14 21:44:00,
2013-03-14 16:49:00,61.8,40.8,30.08,NW,322,5.0,5.0,46,0.00,,SCT250,0.00,VWS V14.01,2013-03-14 21:49:00,
2013-03-14 16:54:00,61.6,40.1,30.08,NNW,328,3.0,5.0,45,0.00,,SCT250,0.00,VWS V14.01,2013-03-14 21:54:00,
2013-03-14 16:59:00,61.6,40.6,30.08,North,354,1.0,4.0,46,0.00,,SCT250,0.00,VWS V14.01,2013-03-14 21:59:00,
2013-03-14 17:04:00,61.8,40.3,30.08,NNW,338,3.0,7.0,45,0.00,,SCT250,0.00,VWS V14.01,2013-03-14 22:04:00,
2013-03-14 17:09:00,61.6,40.1,30.08,North,4,3.0,6.0,45,0.00,,SCT250,0.00,VWS V14.01,2013-03-14 22:09:00,
2013-03-14 17:14:00,61.4,39.9,30.08,NNE,27,5.0,8.0,45,0.00,,SCT250,0.00,VWS V14.01,2013-03-14 22:14:00,
2013-03-14 17:20:00,61.4,39.9,30.08,NE,35,6.0,7.0,45,0.00,,SCT250,0.00,VWS V14.01,2013-03-14 22:20:00,
2013-03-14 17:25:00,61.3,40.4,30.09,NNE,33,4.0,6.0,46,0.00,,SCT250,0.00,VWS V14.01,2013-03-14 22:25:00,
2013-03-14 17:30:00,61.4,39.9,30.08,NNE,18,3.0,6.0,45,0.00,,SCT250,0.00,VWS V14.01,2013-03-14 22:30:00,
2013-03-14 17:35:00,61.3,39.2,30.08,NNE,25,5.0,8.0,44,0.00,,SCT250,0.00,VWS V14.01,2013-03-14 22:35:00,
2013-03-14 17:40:00,60.9,40.0,30.09,NNE,20,5.0,8.0,46,0.00,,SCT250,0.00,VWS V14.01,2013-03-14 22:40:00,
2013-03-14 17:45:00,60.9,40.5,30.09,NW,323,5.0,6.0,47,0.00,,SCT250,0.00,VWS V14.01,2013-03-14 22:45:00,
2013-03-14 17:50:00,61.0,40.1,30.09,North,349,3.0,5.0,46,0.00,,SCT250,0.00,VWS V14.01,2013-03-14 22:50:00,
2013-03-14 17:55:00,60.8,39.9,30.10,NW,314,3.0,6.0,46,0.00,,SCT250,0.00,VWS V14.01,2013-03-14 22:55:00,
2013-03-14 18:00:00,60.7,39.8,30.10,North,11,1.0,4.0,46,0.00,,SCT250,0.00,VWS V14.01,2013-03-14 23:00:00,
2013-03-14 18:05:00,60.5,39.1,30.10,NNW,335,5.0,7.0,45,0.00,,SCT250,0.00,VWS V14.01,2013-03-14 23:05:00,
2013-03-14 18:10:00,60.0,39.2,30.10,NNW,344,5.0,7.0,46,0.00,,SCT250,0.00,VWS V14.01,2013-03-14 23:10:00,
2013-03-14 18:15:00,59.8,40.1,30.10,NNW,337,1.0,3.0,48,0.00,,SCT250,0.00,VWS V14.01,2013-03-14 23:15:00,
2013-03-14 18:20:00,59.6,39.9,30.11,North,4,1.0,6.0,48,0.00,,SCT250,0.00,VWS V14.01,2013-03-14 23:20:00,
2013-03-14 18:25:00,59.2,40.6,30.11,NW,322,4.0,5.0,50,0.00,,SCT250,0.00,VWS V14.01,2013-03-14 23:25:00,
2013-03-14 18:30:00,58.8,40.7,30.11,NNW,337,3.0,4.0,51,0.00,,SCT250,0.00,VWS V14.01,2013-03-14 23:30:00,
2013-03-14 18:35:00,58.3,40.3,30.11,North,354,2.0,4.0,51,0.00,,SCT250,0.00,VWS V14.01,2013-03-14 23:35:00,
2013-03-14 18:40:00,57.8,39.8,30.11,NW,325,3.0,4.0,51,0.00,,SCT250,0.00,VWS V14.01,2013-03-14 23:40:00,
2013-03-14 18:45:00,57.3,39.3,30.11,NW,321,2.0,4.0,51,0.00,,BKN250,0.00,VWS V14.01,2013-03-14 23:45:00,
2013-03-14 18:50:00,56.9,39.0,30.12,NW,318,1.0,3.0,51,0.00,,BKN250,0.00,VWS V14.01,2013-03-14 23:50:00,
2013-03-14 18:55:00,56.4,41.8,30.12,North,4,0.0,3.0,58,0.00,,BKN250,0.00,VWS V14.01,2013-03-14 23:55:00,
2013-03-14 19:00:00,55.8,42.1,30.12,NNE,22,3.0,5.0,60,0.00,,BKN250,0.00,VWS V14.01,2013-03-15 00:00:00,
2013-03-14 19:05:00,55.0,42.2,30.12,NNE,15,2.0,2.0,62,0.00,,BKN250,0.00,VWS V14.01,2013-03-15 00:05:00,
2013-03-14 19:10:00,54.2,41.9,30.12,North,354,3.0,3.0,63,0.00,,BKN250,0.00,VWS V14.01,2013-03-15 00:10:00,
2013-03-14 19:15:00,53.5,42.0,30.12,NNE,27,1.0,2.0,65,0.00,,BKN250,0.00,VWS V14.01,2013-03-15 00:15:00,
2013-03-14 19:20:00,53.0,41.6,30.12,NNE,33,0.0,0.0,65,0.00,,BKN250,0.00,VWS V14.01,2013-03-15 00:20:00,
2013-03-14 19:25:00,52.2,41.6,30.12,NNE,27,2.0,2.0,67,0.00,,BKN250,0.00,VWS V14.01,2013-03-15 00:25:00,
2013-03-14 19:30:00,51.3,41.1,30.12,NNE,21,2.0,3.0,68,0.00,,BKN250,0.00,VWS V14.01,2013-03-15 00:30:00,
2013-03-14 19:35:00,50.6,40.8,30.12,NNE,31,3.0,4.0,69,0.00,,BKN250,0.00,VWS V14.01,2013-03-15 00:35:00,
2013-03-14 19:45:00,49.4,40.4,30.12,NNE,22,3.0,4.0,71,0.00,,BKN250,0.00,VWS V14.01,2013-03-15 00:45:00,
2013-03-14 19:50:00,49.1,40.1,30.12,NNE,23,3.0,3.0,71,0.00,,BKN250,0.00,VWS V14.01,2013-03-15 00:50:00,
2013-03-14 19:55:00,48.8,40.2,30.11,NNE,14,3.0,5.0,72,0.00,,BKN250,0.00,VWS V14.01,2013-03-15 00:55:00,
2013-03-14 20:00:00,48.5,39.9,30.11,North,4,1.0,4.0,72,0.00,,BKN250,0.00,VWS V14.01,2013-03-15 01:00:00,
2013-03-14 20:05:00,48.0,39.4,30.12,North,10,2.0,4.0,72,0.00,,BKN250,0.00,VWS V14.01,2013-03-15 01:05:00,
2013-03-14 20:10:00,47.6,39.0,30.12,North,9,1.0,3.0,72,0.00,,BKN250,0.00,VWS V14.01,2013-03-15 01:10:00,
2013-03-14 20:15:00,47.2,39.0,30.11,NNE,12,0.0,2.0,73,0.00,,BKN250,0.00,VWS V14.01,2013-03-15 01:15:00,
2013-03-14 20:20:00,46.8,39.0,30.11,NNE,12,1.0,2.0,74,0.00,,BKN250,0.00,VWS V14.01,2013-03-15 01:20:00,
2013-03-14 20:25:00,46.5,38.7,30.11,NNE,12,1.0,3.0,74,0.00,,BKN250,0.00,VWS V14.01,2013-03-15 01:25:00,
2013-03-14 20:30:00,46.3,38.8,30.11,NNE,12,0.0,0.0,75,0.00,,BKN250,0.00,VWS V14.01,2013-03-15 01:30:00,
2013-03-14 20:35:00,45.9,38.4,30.11,NNE,26,0.0,0.0,75,0.00,,BKN250,0.00,VWS V14.01,2013-03-15 01:35:00,
2013-03-14 20:40:00,45.7,38.6,30.11,NNE,15,2.0,3.0,76,0.00,,BKN250,0.00,VWS V14.01,2013-03-15 01:40:00,
2013-03-14 20:45:00,45.6,38.5,30.11,NNE,27,3.0,4.0,76,0.00,,BKN250,0.00,VWS V14.01,2013-03-15 01:45:00,
2013-03-14 20:50:00,45.5,38.4,30.10,NNE,21,1.0,4.0,76,0.00,,BKN250,0.00,VWS V14.01,2013-03-15 01:50:00,
2013-03-14 20:55:00,45.3,38.2,30.10,NNE,21,1.0,2.0,76,0.00,,BKN250,0.00,VWS V14.01,2013-03-15 01:55:00,
2013-03-14 21:00:00,45.1,38.0,30.10,NNE,31,0.0,0.0,76,0.00,,BKN250,0.00,VWS V14.01,2013-03-15 02:00:00,
2013-03-14 21:05:00,45.0,38.2,30.09,NNE,28,2.0,3.0,77,0.00,,BKN250,0.00,VWS V14.01,2013-03-15 02:05:00,
2013-03-14 21:10:00,44.9,37.8,30.10,NNE,29,2.0,3.0,76,0.00,,BKN250,0.00,VWS V14.01,2013-03-15 02:10:00,
2013-03-14 21:15:00,44.7,37.9,30.10,NNE,16,2.0,3.0,77,0.00,,BKN250,0.00,VWS V14.01,2013-03-15 02:15:00,
2013-03-14 21:20:00,44.5,37.4,30.09,NNE,26,2.0,3.0,76,0.00,,BKN250,0.00,VWS V14.01,2013-03-15 02:20:00,
2013-03-14 21:25:00,44.1,37.4,30.09,NNE,33,2.0,3.0,77,0.00,,BKN250,0.00,VWS V14.01,2013-03-15 02:25:00,
2013-03-14 21:31:00,44.0,37.3,30.09,NE,34,1.0,1.0,77,0.00,,BKN250,0.00,VWS V14.01,2013-03-15 02:31:00,
2013-03-14 21:36:00,43.8,37.4,30.10,NE,34,0.0,0.0,78,0.00,,BKN250,0.00,VWS V14.01,2013-03-15 02:36:00,
2013-03-14 21:41:00,43.6,37.2,30.10,NE,34,0.0,0.0,78,0.00,,BKN250,0.00,VWS V14.01,2013-03-15 02:41:00,
2013-03-14 21:46:00,43.3,36.9,30.10,NE,34,0.0,0.0,78,0.00,,BKN250,0.00,VWS V14.01,2013-03-15 02:46:00,
2013-03-14 21:51:00,43.1,37.0,30.10,NNW,337,2.0,2.0,79,0.00,,BKN250,0.00,VWS V14.01,2013-03-15 02:51:00,
2013-03-14 21:56:00,43.0,36.9,30.10,NNW,337,0.0,0.0,79,0.00,,BKN250,0.00,VWS V14.01,2013-03-15 02:56:00,
2013-03-14 22:01:00,43.0,36.9,30.10,NNW,337,0.0,0.0,79,0.00,,BKN250,0.00,VWS V14.01,2013-03-15 03:01:00,
2013-03-14 22:06:00,42.7,36.7,30.10,NNW,337,0.0,0.0,79,0.00,,BKN250,0.00,VWS V14.01,2013-03-15 03:06:00,
2013-03-14 22:11:00,42.4,36.7,30.10,NNW,337,0.0,0.0,80,0.00,,BKN250,0.00,VWS V14.01,2013-03-15 03:11:00,
2013-03-14 22:16:00,42.3,36.6,30.10,West,265,0.0,1.0,80,0.00,,BKN250,0.00,VWS V14.01,2013-03-15 03:16:00,
2013-03-14 22:21:00,42.2,36.5,30.10,West,265,0.0,0.0,80,0.00,,BKN250,0.00,VWS V14.01,2013-03-15 03:21:00,
2013-03-14 22:26:00,41.8,36.1,30.10,West,265,0.0,0.0,80,0.00,,BKN250,0.00,VWS V14.01,2013-03-15 03:26:00,
2013-03-14 22:31:00,41.5,36.1,30.10,West,265,0.0,0.0,81,0.00,,SCT250,0.00,VWS V14.01,2013-03-15 03:31:00,
2013-03-14 22:36:00,41.5,36.4,30.10,West,265,0.0,0.0,82,0.00,,SCT250,0.00,VWS V14.01,2013-03-15 03:36:00,
2013-03-14 22:41:00,41.5,36.7,30.09,West,265,0.0,0.0,83,0.00,,SCT250,0.00,VWS V14.01,2013-03-15 03:41:00,
2013-03-14 22:46:00,41.5,36.7,30.09,West,265,0.0,0.0,83,0.00,,SCT250,0.00,VWS V14.01,2013-03-15 03:46:00,
2013-03-14 22:52:00,41.6,36.8,30.09,West,265,0.0,0.0,83,0.00,,SCT250,0.00,VWS V14.01,2013-03-15 03:52:00,
2013-03-14 22:57:00,41.7,36.9,30.09,West,265,0.0,0.0,83,0.00,,SCT250,0.00,VWS V14.01,2013-03-15 03:57:00,
2013-03-14 23:00:00,41.8,36.7,30.09,SE,132,2.0,2.0,82,0.00,,SCT250,0.00,VWS V14.01,2013-03-15 04:00:00,
2013-03-14 23:05:00,42.0,36.6,30.08,ESE,120,0.0,0.0,81,0.00,,SCT250,0.00,VWS V14.01,2013-03-15 04:05:00,
2013-03-14 23:10:00,41.8,36.4,30.08,ESE,120,1.0,1.0,81,0.00,,SCT250,0.00,VWS V14.01,2013-03-15 04:10:00,
2013-03-14 23:15:00,41.4,36.3,30.08,ESE,120,0.0,0.0,82,0.00,,SCT250,0.00,VWS V14.01,2013-03-15 04:15:00,
2013-03-14 23:20:00,41.2,36.1,30.08,ESE,120,0.0,0.0,82,0.00,,SCT250,0.00,VWS V14.01,2013-03-15 04:20:00,
2013-03-14 23:25:00,40.9,36.1,30.08,SSE,152,0.0,0.0,83,0.00,,SCT250,0.00,VWS V14.01,2013-03-15 04:25:00,
2013-03-14 23:30:00,40.9,36.1,30.07,SSE,166,1.0,1.0,83,0.00,,SCT250,0.00,VWS V14.01,2013-03-15 04:30:00,
2013-03-14 23:35:00,40.9,36.1,30.07,SSW,196,0.0,2.0,83,0.00,,FEW250,0.00,VWS V14.01,2013-03-15 04:35:00,
2013-03-14 23:40:00,41.0,36.2,30.07,SSW,196,1.0,2.0,83,0.00,,FEW250,0.00,VWS V14.01,2013-03-15 04:40:00,
2013-03-14 23:45:00,41.1,36.3,30.07,SSW,196,0.0,0.0,83,0.00,,FEW250,0.00,VWS V14.01,2013-03-15 04:45:00,
2013-03-14 23:50:00,41.1,36.3,30.07,SSW,196,0.0,0.0,83,0.00,,FEW250,0.00,VWS V14.01,2013-03-15 04:50:00,
2013-03-14 23:55:00,41.4,36.9,30.07,SSW,196,2.0,2.0,84,0.00,,FEW250,0.00,VWS V14.01,2013-03-15 04:55:00,